Hourly Data Report for October 03, 2004

TORONTO CITY
ONTARIO

43°40'00.000" N
79°24'00.000" W
112.50 m
6158355
71508
XTO

Download Data

Hourly Data (October 2004)
Hourly Data Report for October 3, 2004
TIME
LST
Temp Definition
°C
Dew Point Definition
°C
Rel Hum Definition
%
Precip. Amount Definition
mm

Wind Dir Definition
10's deg

Wind Spd Definition
km/h
Visibility Definition
km
Stn Press Definition
kPa
Hmdx Definition


Wind Chill Definition


Weather Definition


00:00 8.7 4.7 76   LegendMM LegendMM LegendMM 100.87     LegendNANA
01:00 7.6 4.5 81   LegendMM LegendMM LegendMM 100.90     LegendNANA
02:00 7.7 4.3 79   LegendMM LegendMM LegendMM 100.90     LegendNANA
03:00 7.3 3.9 79   LegendMM LegendMM LegendMM 100.87     LegendNANA
04:00 6.5 3.5 81   LegendMM LegendMM LegendMM 100.88     LegendNANA
05:00 7.1 3.4 77   LegendMM LegendMM LegendMM 100.88     LegendNANA
06:00 6.3 3.3 81   LegendMM LegendMM LegendMM 100.90     LegendNANA
07:00 6.7 3.5 80   LegendMM LegendMM LegendMM 100.90     LegendNANA
08:00 9.1 4.1 71   LegendMM LegendMM LegendMM 100.92     LegendNANA
09:00 11.3 4.5 63   LegendMM LegendMM LegendMM 100.90     LegendNANA
10:00 13.4 5.0 57   LegendMM LegendMM LegendMM 100.85     LegendNANA
11:00 15.1 4.8 50   LegendMM LegendMM LegendMM 100.76     LegendNANA
12:00 16.1 4.1 45   LegendMM LegendMM LegendMM 100.69     LegendNANA
13:00 16.5 4.6 45   LegendMM LegendMM LegendMM 100.59     LegendNANA
14:00 17.6 1.8 35   LegendMM LegendMM LegendMM 100.47     LegendNANA
15:00 17.3 1.0 33   LegendMM LegendMM LegendMM 100.37     LegendNANA
16:00 17.4 0.1 31   LegendMM LegendMM LegendMM 100.29     LegendNANA
17:00 17.0 2.4 37   LegendMM LegendMM LegendMM 100.28     LegendNANA
18:00 16.0 2.9 41   LegendMM LegendMM LegendMM 100.22     LegendNANA
19:00 15.2 4.0 47   LegendMM LegendMM LegendMM 100.20     LegendNANA
20:00 14.7 2.8 45   LegendMM LegendMM LegendMM 100.17     LegendNANA
21:00 14.0 4.3 52   LegendMM LegendMM LegendMM 100.12     LegendNANA
22:00 13.9 7.3 64   LegendMM LegendMM LegendMM 100.04     LegendNANA
23:00 14.5 7.2 62   LegendMM LegendMM LegendMM 100.01     LegendNANA

Notes on Data Quality.

Legend

  • E = Estimated
  • M = Missing
  • NA = Not Available*
  • [empty] = Indicates an unobserved value
Date modified: